Scottsbluff, NE

1:51 AM MDT on April 22, 2018 (GMT -0600)
Heilig

Weather History for KBFF - March, 2014

Change the Weather History Date:

Saturday, March 22, 2014

  Actual Average Record
Temperature  
Mean Temperature 23 °F 40 °F  
Max Temperature 29 °F 54 °F 85 °F (1910)
Min Temperature 16 °F 26 °F -14 °F (1898)
Degree Days  
Heating Degree Days 42 25  
Month to date heating degree days 623 615  
Since 1 July heating degree days 5656 5527  
Cooling Degree Days 0 0  
Month to date cooling degree days 0 0  
Year to date cooling degree days 0 0  
Moisture  
Dew Point 19 °F    
Average Humidity 80    
Maximum Humidity 96    
Minimum Humidity 63    
Precipitation  
Precipitation 0.20 in 0.04 in 0.46 in (1957)
Month to date precipitation 0.58 0.65  
Year to date precipitation 2.18 1.66  
Snow  
Snow 2.20 in 0.20 in 4.20 in (1957)
Month to date snowfall 6.4 5.5  
Since 1 July snowfall 57.7 33.9  
Snow Depth T in    
Sea Level Pressure  
Sea Level Pressure 30.31 in    
Wind  
Wind Speed 12 mph (East)    
Max Wind Speed 22 mph    
Max Gust Speed 27 mph    
Visibility 4 miles    
Events Fog , Snow    
T = Trace of Precipitation, MM = Missing Value Source: NWS Daily Summary

Daily Weather History Graph

Daily Weather History Graph

Search for Another Location

Airport or City:

Astronomy

Mar. 22, 2014 Rise Set
Actual Time 6:54 AM MDT 7:08 PM MDT
Civil Twilight 6:26 AM MDT 7:36 PM MDT
Nautical Twilight 5:53 AM MDT 8:09 PM MDT
Astronomical Twilight 5:20 AM MDT 8:42 PM MDT
Moon 12:34 AM MDT 10:35 AM MDT
Length of Visible Light 13h 10m
Length of Day
12h 14m
Waning Gibbous, 65% of the Moon is Illuminated
Mar 22
Waning Gibbous
Mar 23
Last Quarter
Mar 30
New
Apr 7
First Quarter
Apr 15
Full

Hourly Weather History & Observations

Time (MDT) Temp. Windchill Dew Point Humidity Pressure Visibility Wind Dir Wind Speed Gust Speed Precip Events Conditions
12:53 AM 28.9 °F 19.2 °F 21.0 °F 72% 30.27 in 10.0 mi East 11.5 mph - N/A   Overcast
1:53 AM 28.9 °F 18.6 °F 19.0 °F 67% 30.27 in 10.0 mi East 12.7 mph - 0.00 in   Overcast
2:36 AM 28.0 °F 17.5 °F 18.0 °F 66% 30.21 in 10.0 mi ESE 12.7 mph - 0.00 in   Overcast
2:43 AM 28.0 °F 17.0 °F 18.0 °F 66% 30.21 in 10.0 mi ESE 13.8 mph - 0.00 in   Overcast
2:53 AM 28.0 °F 17.5 °F 18.0 °F 66% 30.25 in 10.0 mi ESE 12.7 mph - 0.00 in   Overcast
3:26 AM 28.0 °F 18.1 °F 21.0 °F 75% 30.19 in 9.0 mi East 11.5 mph - 0.00 in   Overcast
3:49 AM 26.6 °F 15.7 °F 19.4 °F 74% 30.19 in 10.0 mi East 12.7 mph - 0.00 in   Overcast
3:53 AM 27.0 °F 16.1 °F 21.0 °F 78% 30.25 in 10.0 mi East 12.7 mph - 0.00 in   Overcast
4:28 AM 26.1 °F 14.0 °F 21.9 °F 84% 30.18 in 2.5 mi East 15.0 mph - 0.01 in Snow Light Snow
4:41 AM 26.1 °F 14.5 °F 23.0 °F 88% 30.18 in 1.8 mi East 13.8 mph - 0.02 in Snow Light Snow
4:45 AM 26.1 °F 15.6 °F 23.0 °F 88% 30.18 in 1.8 mi ESE 11.5 mph - 0.02 in Snow Light Snow
4:53 AM 25.0 °F 13.6 °F 23.0 °F 92% 30.25 in 2.0 mi ESE 12.7 mph - 0.02 in Snow Light Snow
4:58 AM 25.0 °F 13.6 °F 23.0 °F 92% 30.19 in 2.5 mi ESE 12.7 mph - 0.00 in Snow Light Snow
5:04 AM 25.0 °F 13.6 °F 23.0 °F 92% 30.19 in 3.0 mi ESE 12.7 mph - 0.00 in Snow Light Snow
5:09 AM 25.0 °F 14.2 °F 23.0 °F 92% 30.19 in 2.5 mi ESE 11.5 mph - 0.01 in Snow Light Snow
5:24 AM 25.0 °F 14.2 °F 23.0 °F 92% 30.19 in 1.8 mi East 11.5 mph - 0.01 in Snow Light Snow
5:32 AM 25.0 °F 13.1 °F 23.0 °F 92% 30.20 in 2.0 mi East 13.8 mph - 0.01 in Snow Light Snow
5:43 AM 25.0 °F 13.1 °F 23.0 °F 92% 30.20 in 1.5 mi East 13.8 mph - 0.01 in Snow Light Snow
5:53 AM 25.0 °F 13.6 °F 23.0 °F 92% 30.28 in 1.2 mi East 12.7 mph - 0.02 in Snow Light Snow
6:01 AM 25.0 °F 14.8 °F 23.0 °F 92% 30.20 in 1.2 mi East 10.4 mph - 0.01 in Snow Light Snow
6:17 AM 25.0 °F 13.6 °F 23.0 °F 92% 30.20 in 1.2 mi East 12.7 mph - 0.02 in Snow Light Snow
6:40 AM 24.1 °F 12.0 °F 21.9 °F 91% 30.21 in 1.8 mi East 13.8 mph - 0.03 in Snow Light Snow
6:50 AM 24.8 °F 12.4 °F 21.2 °F 86% 30.21 in 2.0 mi East 15.0 mph - 0.03 in Snow Light Snow
6:53 AM 24.1 °F 12.0 °F 21.9 °F 91% 30.30 in 2.0 mi East 13.8 mph - 0.03 in Snow Light Snow
7:06 AM 24.1 °F 12.5 °F 21.9 °F 91% 30.22 in 1.0 mi East 12.7 mph - 0.01 in Snow Light Snow
7:25 AM 24.1 °F 12.0 °F 21.9 °F 91% 30.22 in 1.2 mi East 13.8 mph - 0.02 in Snow Light Snow
7:53 AM 24.1 °F 11.5 °F 21.0 °F 88% 30.33 in 1.2 mi East 15.0 mph - 0.02 in Snow Light Snow
8:10 AM 24.1 °F 13.7 °F 21.9 °F 91% 30.24 in 0.8 mi East 10.4 mph - 0.01 in Snow Light Snow
8:21 AM 24.1 °F 12.5 °F 21.9 °F 91% 30.24 in 1.2 mi East 12.7 mph - 0.01 in Snow Light Snow
8:35 AM 24.1 °F 13.1 °F 21.9 °F 91% 30.24 in 0.8 mi East 11.5 mph - 0.02 in Snow Light Snow
8:49 AM 24.8 °F 12.9 °F 21.2 °F 86% 30.25 in 1.0 mi East 13.8 mph - 0.02 in Snow Light Snow
8:53 AM 24.1 °F 12.5 °F 21.9 °F 91% 30.35 in 1.0 mi East 12.7 mph - 0.02 in Snow Light Snow
9:06 AM 24.1 °F 12.5 °F 21.9 °F 91% 30.25 in 0.8 mi East 12.7 mph - 0.01 in Snow Light Snow
9:16 AM 23.0 °F 10.6 °F 21.0 °F 92% 30.25 in 0.5 mi East 13.8 mph - 0.01 in Fog , Snow Snow
9:25 AM 23.0 °F 10.6 °F 19.9 °F 88% 30.26 in 0.2 mi ENE 13.8 mph - 0.02 in Fog , Snow Snow
9:50 AM 23.0 °F 11.7 °F 19.4 °F 86% 30.27 in 0.5 mi ENE 11.5 mph - 0.05 in Fog , Snow Snow
9:53 AM 23.0 °F 10.6 °F 21.0 °F 92% 30.37 in 0.5 mi ENE 13.8 mph - 0.05 in Fog , Snow Snow
10:07 AM 24.1 °F 11.0 °F 19.9 °F 84% 30.27 in 0.8 mi ENE 16.1 mph - 0.01 in Snow Light Snow
10:53 AM 23.0 °F 10.1 °F 19.9 °F 88% 30.39 in 1.0 mi ENE 15.0 mph - 0.02 in Snow Light Snow
11:00 AM 23.0 °F 9.6 °F 19.9 °F 88% 30.28 in 0.5 mi ENE 16.1 mph - 0.00 in Fog , Snow Snow
11:15 AM 23.0 °F 9.2 °F 19.9 °F 88% 30.28 in 0.5 mi ENE 17.3 mph - 0.01 in Fog , Snow Light Snow
11:23 AM 23.0 °F 9.2 °F 19.0 °F 85% 30.29 in 0.8 mi ENE 17.3 mph - 0.01 in Snow Light Snow
11:37 AM 24.1 °F 9.8 °F 19.0 °F 81% 30.29 in 1.0 mi ENE 19.6 mph - 0.01 in Snow Light Snow
11:48 AM 23.0 °F 8.7 °F 17.6 °F 80% 30.29 in 1.8 mi ENE 18.4 mph - 0.01 in Snow Light Snow
11:53 AM 23.0 °F 8.3 °F 18.0 °F 81% 30.41 in 2.0 mi ENE 19.6 mph - 0.01 in Snow Light Snow
12:04 PM 23.0 °F 8.7 °F 18.0 °F 81% 30.29 in 1.5 mi ENE 18.4 mph - 0.00 in Snow Light Snow
12:34 PM 21.9 °F 6.5 °F 17.1 °F 82% 30.29 in 2.5 mi ENE 20.7 mph - 0.00 in Snow Light Snow
12:41 PM 23.0 °F 8.0 °F 17.1 °F 78% 30.29 in 3.0 mi ENE 20.7 mph 26.5 mph 0.01 in Snow Light Snow
12:53 PM 23.0 °F 8.3 °F 17.1 °F 78% 30.41 in 4.0 mi ENE 19.6 mph - 0.01 in Snow Light Snow
1:14 PM 21.9 °F 7.3 °F 17.1 °F 82% 30.30 in 2.5 mi ENE 18.4 mph - 0.00 in Snow Light Snow
1:22 PM 21.9 °F 7.3 °F 17.1 °F 82% 30.30 in 3.0 mi ENE 18.4 mph - 0.00 in Snow Light Snow
1:53 PM 21.9 °F 7.3 °F 16.0 °F 78% 30.42 in 4.0 mi ENE 18.4 mph - 0.00 in Snow Light Snow
2:53 PM 23.0 °F 10.6 °F 16.0 °F 74% 30.43 in 7.0 mi ENE 13.8 mph - 0.00 in   Overcast
3:29 PM 23.0 °F 11.1 °F 17.1 °F 78% 30.32 in 4.0 mi ENE 12.7 mph - 0.00 in Snow Light Snow
3:53 PM 21.9 °F 10.4 °F 15.1 °F 75% 30.45 in 10.0 mi East 11.5 mph - 0.00 in   Overcast
4:53 PM 21.0 °F 10.6 °F 15.1 °F 78% 30.48 in 8.0 mi ENE 9.2 mph - 0.00 in   Overcast
5:53 PM 21.0 °F 10.6 °F 15.1 °F 78% 30.50 in 7.0 mi East 9.2 mph - 0.00 in Snow Light Snow
6:53 PM 19.9 °F 11.1 °F 15.1 °F 81% 30.52 in 8.0 mi ESE 6.9 mph - 0.00 in   Overcast
7:08 PM 19.9 °F 11.1 °F 14.0 °F 78% 30.38 in 9.0 mi ESE 6.9 mph - N/A   Overcast
7:53 PM 17.1 °F 10.0 °F 12.9 °F 84% 30.54 in 9.0 mi East 4.6 mph - N/A   Overcast
8:53 PM 19.0 °F 10.0 °F 15.1 °F 85% 30.55 in 9.0 mi SE 6.9 mph - N/A   Overcast
9:53 PM 19.0 °F 12.3 °F 15.1 °F 85% 30.56 in 8.0 mi ESE 4.6 mph - N/A   Overcast
10:53 PM 18.0 °F 7.7 °F 15.1 °F 88% 30.55 in 10.0 mi ESE 8.1 mph - N/A   Overcast
11:15 PM 19.0 °F 7.5 °F 15.1 °F 85% 30.39 in 10.0 mi ESE 10.4 mph - N/A   Overcast
11:53 PM 19.0 °F 9.0 °F 15.1 °F 85% 30.53 in 10.0 mi ESE 8.1 mph - N/A   Overcast